{"data":{"norad_id":53986,"epoch":"2026-09-20T20:19:36.182784Z","epoch_age_seconds":56555,"freshness":"FRESH","line1":"1 53986U 22125Y   26263.84694656 -.00000189  00000+0  56647-5 0  9991","line2":"2 53986  53.1620  33.4516 0001070  80.9446 279.1677 15.31704063219259","mean_motion":15.31704063,"eccentricity":0.000107,"inclination_deg":53.162,"raan_deg":33.4516,"arg_perigee_deg":80.9446,"mean_anomaly_deg":279.1677,"bstar":5.6647e-6,"rev_number":21925,"period_min":94.012938581596,"perigee_km":469.99505511829,"apogee_km":471.46071220339,"semimajor_km":6848.8648836608,"source":"CELESTRAK","updated_at":"2026-09-21T09:00:33.043846Z"}}